#timestamp,LO_Frequency,Hit,StdDev 
1512266415.0,286046987.1,N
1512266415.9,286046987.1,N
1512266435.8,286046986.0,N
1512266455.6,286046985.8,N
1512266475.4,286046986.3,N
1512266495.3,286046984.8,N
1512266515.1,286046981.8,N
1512266535.8,286046980.0,N
1512266555.7,286046980.6,N
1512266575.5,286046982.2,N
1512266595.3,286046981.4,N
1512266615.2,286046980.5,N
1512266635.9,286046984.4,N
1512266655.7,286046982.1,N
1512266675.6,286046984.1,N
1512266695.4,286046986.2,N
1512266715.2,286046986.0,N
1512266735.0,286046985.2,N
1512266736.0,286046985.2,Y
1512266755.8,286046995.3,P
1512266775.6,286046999.2,N
1512266795.5,286046998.8,N
1512266815.3,286046996.5,N
1512266835.1,286046998.0,N
1512266855.8,286046995.7,N
1512266875.7,286046994.0,N
1512266895.5,286046991.0,N
1512266915.3,286046987.7,Y
1512266935.2,286046987.8,P
1512266955.0,286046988.5,P
1512266955.9,286046988.5,P
1512266975.8,286046983.7,Y
1512266995.6,286046994.6,P
1512267015.4,286046995.1,N
1512267035.2,286046998.9,N
1512267055.1,286047000.7,N
1512267056.0,286047000.7,N
1512267075.8,286046998.8,N
1512267095.6,286047001.1,N
1512267115.5,286046999.0,N
1512267135.3,286046998.5,N
1512267155.1,286047000.4,N
1512267175.9,286047003.5,N
1512267195.7,286047004.0,N
1512267215.5,286047000.1,N
1512267235.4,286046997.7,N
1512267255.2,286046995.8,N
1512267275.0,286047001.1,N
1512267275.9,286047001.1,N
1512267295.7,286047000.7,N
1512267315.6,286046999.1,N
1512267335.4,286046999.4,N
1512267355.2,286046999.4,N
1512267375.1,286046997.6,N
1512267376.0,286046997.6,N
1512267395.8,286046997.0,N
1512267415.6,286046995.0,N
1512267435.5,286046996.6,N
1512267455.3,286046995.2,N
1512267475.1,286046995.0,N
1512267495.9,286046999.5,N
1512267515.7,286046998.6,N
1512267535.5,286047000.0,N
1512267555.4,286046998.1,N
1512267575.2,286046993.9,N
1512267595.0,286046993.3,N
1512267595.9,286046993.3,N
1512267615.7,286046992.6,N
1512267635.6,286046988.5,Y
1512267655.4,286046998.0,P
1512267675.2,286046995.7,P
1512267695.1,286046995.9,P
1512267696.0,286046995.9,Y
1512267715.8,286046997.0,P
1512267735.7,286046998.3,P
1512267755.5,286046996.5,P
1512267775.3,286046998.0,Y
1512267795.2,286047000.3,P
1512267815.9,286046998.9,N
1512267835.7,286046997.0,N
1512267855.5,286047000.9,N
1512267875.4,286047000.4,N
1512267895.2,286047000.1,N
1512267915.0,286047001.3,N
1512267915.9,286047001.3,N
1512267935.8,286047003.4,N
1512267955.6,286047002.2,N
1512267975.4,286047000.4,N
1512267995.3,286046998.2,N
1512268015.1,286047000.5,N
1512268016.0,286047000.5,N
1512268035.8,286047002.5,N
1512268055.7,286047000.9,N
1512268075.5,286047001.0,N
1512268095.3,286047003.2,N
1512268115.2,286047001.4,N
1512268135.9,286047000.8,N
1512268155.7,286047002.0,N
1512268175.5,286046999.8,N
1512268195.4,286046999.8,N
1512268215.2,286047002.6,N
1512268235.0,286047005.9,Y
1512268236.0,286047005.9,P
1512268255.8,286047005.1,N
1512268275.6,286047001.4,N
1512268295.4,286047001.9,N
1512268315.3,286047005.5,N
1512268335.1,286047006.6,Y
1512268355.8,286047007.0,P
1512268375.7,286047008.7,P
1512268395.5,286047009.8,P
1512268415.3,286047010.2,Y
1512268435.2,286047005.7,P
1512268455.0,286047007.6,P
1512268455.9,286047007.6,P
1512268475.8,286047009.1,Y
1512268495.6,286047000.8,P
1512268515.4,286047001.0,N
1512268535.2,286047001.7,N
1512268555.1,286047005.2,N
1512268556.0,286047005.2,N
1512268575.8,286047008.0,Y
1512268595.7,286047003.9,P
1512268615.5,286047005.0,P
1512268635.3,286047010.4,P
1512268655.2,286047014.8,Y
1512268675.9,286047009.4,P
1512268695.7,286047009.7,P
1512268715.5,286047008.3,P
1512268735.4,286047008.7,Y
1512268755.2,286046991.7,P
1512268775.0,286046992.7,N
1512268776.0,286046992.7,N
1512268795.8,286046990.2,N
1512268815.6,286046989.3,N
1512268835.4,286046989.5,N
1512268855.3,286046988.7,N
1512268875.1,286046989.6,N
1512268895.8,286046991.6,N
1512268915.7,286046991.3,N
1512268935.5,286046987.1,N
1512268955.3,286046988.4,N
1512268975.2,286046989.8,N
1512268995.9,286046988.7,N
1512269015.7,286046990.1,N
1512269035.6,286046988.8,N
1512269055.4,286046985.3,Y
1512269075.2,286046992.2,P
1512269095.1,286046990.5,P
1512269096.0,286046990.5,P
1512269115.8,286046988.2,Y
1512269135.6,286046997.9,P
1512269155.5,286046990.3,N
1512269175.3,286046996.4,N
1512269195.1,286046994.6,N
1512269215.9,286046995.1,N
1512269235.7,286046995.0,N
1512269255.5,286046995.5,N
1512269275.3,286046995.2,N
1512269295.2,286046996.4,N
1512269315.0,286046992.9,Y
1512269315.9,286046992.9,P
1512269335.8,286046997.5,N
1512269355.6,286047002.4,N
1512269375.4,286047008.7,N
1512269395.2,286047013.5,N
1512269415.1,286047016.3,N
1512269416.0,286047016.3,N
1512269435.8,286047026.5,N
1512269455.6,286047030.6,N
1512269475.5,286047037.8,Y
1512269495.3,286047033.3,P
1512269515.1,286047036.4,P
1512269535.9,286047040.3,P
1512269555.7,286047046.7,Y
1512269575.5,286047019.3,P
1512269595.4,286047023.1,P
1512269615.2,286047027.0,P
1512269635.0,286047032.0,Y
1512269636.0,286047032.0,P
1512269655.8,286047013.7,P
1512269675.6,286047014.1,N
1512269695.4,286047017.6,N
1512269715.3,286047016.3,N
1512269735.1,286047019.3,N
1512269755.8,286047022.8,Y
1512269775.7,286046999.7,P
1512269795.5,286047005.9,N
1512269815.3,286047005.1,N
1512269835.2,286047004.6,N
1512269855.9,286047001.7,N
1512269875.7,286047001.8,N
1512269895.6,286047003.5,N
1512269915.4,286047006.9,N
1512269935.2,286047008.2,N
1512269955.1,286047010.7,N
1512269956.0,286047010.7,N
1512269975.8,286047006.1,N
1512269995.6,286047007.4,N
